Showing default

FLOCK 4Q 27, 58282

Orbit data source: Space-Track

FLOCK 4Q 27, 58282 is a payload satellite owned by Planet (US) in SSO that was launched on Sat, 11 Nov 2023 UTC via an FALCON 9 launch vehicle from the Air Force Western Test Range (AFWTR). Payloads include a variety of satellites, spacecraft, and rockets equipped with specific instruments for various scientific and technological missions. These include communications satellites like Starlink; space stations such as the ISS; scientific satellites like the Hubble; Earth observation satellites from companies like Planet Labs, Umbra, and HawkEye 360; GPS; miniature CubeSats for education and research; and military/defense satellites.

Loading next visibility...
FLOCK 4Q 27 details
Identifier
58282, 2023-174AC
Orbit
SSO
Last TLE update23 hours ago
Origin
Flag of USPlanet (US)
ManufacturerPlanet
MissionOperational Commercial Imaging
Bus & MotorCUBESAT 3U, Unknown motor
Mass5.7 kg wet, 5.7 kg dry
Launch date (UTC)
2023-11-11 (1 year ago)
Launch vehicle
FALCON 9
Launch site
Air Force Western Test Range (AFWTR)
Object type
Payload
Rocket body
Debris
Shape & HBRBox + 2 Pan, 0.3 m
Radar Cross Section0.035 m², Medium (>0.1 m² and < 1m²)

Expand to show TLE details & history

TLE from 23 hours ago
0 FLOCK 4Q 27
1 58282U 23174AC  24355.70677500  .00017505  00000-0  64162-3 0  9993
2 58282  97.4340  68.8882 0007409 298.2596  61.7895 15.28033421 62110
Epoch: 2024-12-20T16:57Z
Definitive object data (Epoch: 2024-12-20T16:57:45.359Z)
Latitude-0.00007°
Longitude84.68078°
Altitude482.392 km
Speed7.626 km/s
True Right ascension04h 35m 33s
True Declination0° 00' 00"
Sunlit
Object was in full shadow at TLE epoch
Visualization TLE readout
Latitude-38.26077°
Longitude-100.23874°
Altitude495.057 km
Speed7.616 km/s
Apparent Right ascension20h 33m 20s
Apparent Declination-77° 37' 42"
Sunlit
Object is in daylight
Visualization observer readout
Local Sidereal Time14:57:30
Azimuth164.411° S
Elevation-37.551°
Doppler factor1
Orbital elements
Apogee altitude483.728 km
Perigee altitude473.568 km
Semi-major axis6,856.785 km
Eccentricity0.0007409
Inclination97.434°
RAAN68.8882°
Arg. of periapsis298.2596°
True anomaly61.86435°
Mean anomaly61.7895°
Eccentric anomaly61.82692°
Mean motion3.82263 °/min
BSTAR0.00064162
Orbital period94.18 mins
Loading maneuver chart data...
Loading historical data...
Loading historical data...
Loading historical data...
Loading historical data...
Loading historical data...
Loading historical data...
Loading historical data...

FLOCK 4Q 27 Visibility forecast

Observer location: undefined°, undefined

Span
Click to sort rows by Start time (UTC) header in descending order
Start Az.
Max El. time (UTC)
Max El. Az.
Max El.
End time (UTC)
End Az.
4 mins2024-12-21 17:07:08.445Z55.545° ENE2024-12-21 17:09:08.445Z92.844° ESE16.814°2024-12-21 17:11:08.445Z131.121° SE
4 mins2024-12-21 18:41:08.445Z324.879° NNW2024-12-21 18:42:08.445Z301.045° NW22.64°2024-12-21 18:45:08.445Z236.279° WSW
5 mins2024-12-22 05:15:08.445Z175.27° S2024-12-22 05:17:08.445Z272.163° WNW44.166°2024-12-22 05:20:08.445Z344.225° N
|